GOES 18

Last updated on Sun Dec 07 2025 00:02:23 GMT+0000 (Coordinated Universal Time)

1 51850U 22021A 25340.54406383 .00000104 00000+0 00000+0 0 9996 2 51850 0.0132 146.4470 0000904 150.1360 197.8600 1.00271985 4662
UTC large
Height (km)
Speed (km/s)
/
Latitude / Longitude
Inclination (degrees)
Orbital Period (minutes)
Azimuth
Elevation
Range (km)
Doppler Factor

Next 0 passes for location: London (51.5072 / 0.1276)

Sorry there are no passes over London.